{"data":{"norad_id":65922,"intl_designator":"2025-225N","name":"STARLINK-35544","alt_names":[],"object_type":"PAYLOAD","status":"ACTIVE","operator":null,"country":"US","launch_date":"2025-10-08","launch_site_code":"AFWTR","launch_vehicle":null,"mission":null,"orbit_class":"UNKNOWN","rcs_meters":null,"size_class":null,"mass_kg":null,"dimensions":null,"purposes":["comms"],"wikipedia_slug":null,"has_3d_model":false,"image_url":null,"decayed_at":null,"tle_current":{"epoch":"2026-05-25T02:03:11.159712Z","epoch_age_seconds":71625,"freshness":"FRESH","line1":"1 65922U 25225N   26145.08554583  .00023640  00000+0  72735-3 0  9997","line2":"2 65922  53.1590 170.9023 0001014  99.2139 260.8978 15.33571166 36108","mean_motion":15.33571166,"eccentricity":0.0001014,"inclination_deg":53.159,"raan_deg":170.9023,"arg_perigee_deg":99.2139,"mean_anomaly_deg":260.8978,"bstar":0.00072735,"rev_number":3610,"period_min":93.898479048477,"perigee_km":464.47390785439,"apogee_km":465.86173007167,"semimajor_km":6843.304818963,"source":"CELESTRAK","updated_at":"2026-05-25T13:38:20.988604Z"}}}